Okean 2 - Orbit

View from above orbital plane
View from above orbital plane
View from above satellite
View from above satellite

Ground track
Ground track

The orbit data is extracted from the following two-line orbital elements,

1 20510U 90018A   13168.46268356  .00000705  00000-0  63079-4 0  4148
2 20510 082.5183 130.1700 0012596 217.5278 291.4290 14.94343053262883
Epoch (UTC): 17 June 2013 11:06:15
Eccentricity: 0.0012596
inclination: 82.5183°
perigee height: 575 km
apogee height: 593 km
right ascension of ascending node: 130.1700°
argument of perigee: 217.5278°
revolutions per day: 14.94343053
mean anomaly at epoch: 291.4290°
orbit number at epoch: 26288

The dashed part of the orbit path shows where the satellite is in the earth's shadow,  

Developed and maintained by Chris Peat, Heavens-Above GmbH. Please read the updated FAQ before sending e-mail. Imprint. DLR